This demonstration page uses our WeatherBlox Daily Observations layout. Learn more.

Left ArrowRight Arrow

39.01783, -85.05884

Hourly Observations for February 29, 2020

Temp ( °F °C ) Dew Point ( °F °C ) Humidity (%) Winds ( mph kmh ) Pressure ( in mb ) Visibility ( mi km ) Precip ( " mm )
12:52 am 00:52 Cloudy 25 -3.9 16 -8.9 69 69 NNW 17 28 30.11 1020 10 16.0934 0.001 0.001
1:52 am 01:52 Partly Cloudy 23 -5 14 -10 68 68 NNW 9 15 30.12 1020 10 16.0934 0 0
2:52 am 02:52 Mostly Clear 22 -5.6 14 -10 71 71 NW 9 15 30.13 1020 10 16.0934 0 0
3:52 am 03:52 Clear 19 -7.2 12 -11.1 74 74 W 8 13 30.14 1021 10 16.0934 0 0
4:52 am 04:52 Clear 20 -6.7 12 -11.1 71 71 WNW 8 13 30.15 1021 10 16.0934 0 0
5:52 am 05:52 Clear 19 -7.2 12 -11.1 74 74 W 13 20 30.17 1022 10 16.0934 0 0
6:52 am 06:52 Clear 18 -7.8 12 -11.1 77 77 W 9 15 30.19 1022 10 16.0934 0 0
7:52 am 07:52 Sunny 19 -7.2 13 -10.6 77 77 W 8 13 30.21 1023 9 14.48406 0 0
8:52 am 08:52 Sunny 23 -5 14 -10 68 68 W 10 17 30.23 1024 10 16.0934 0 0
9:52 am 09:52 Sunny 26 -3.3 13 -10.6 57 57 W 9 15 30.24 1024 10 16.0934 0 0
10:52 am 10:52 Sunny 28 -2.2 12 -11.1 51 51 W 8 13 30.26 1025 10 16.0934 0 0
11:52 am 11:52 Sunny 31 -0.6 12 -11.1 45 45 WNW 13 20 30.27 1025 10 16.0934 0 0
12:52 pm 12:52 Sunny 32 0 11 -11.7 41 41 WSW 9 15 30.25 1025 10 16.0934 0 0
1:52 pm 13:52 Sunny 35 1.7 12 -11.1 38 38 W 13 20 30.24 1024 10 16.0934 0 0
2:52 pm 14:52 Sunny 35 1.7 10 -12.2 35 35 WSW 10 17 30.23 1024 10 16.0934 0 0
3:52 pm 15:52 Sunny 36 2.2 9 -12.8 32 32 W 7 11 30.23 1024 10 16.0934 0 0
4:52 pm 16:52 Sunny 37 2.8 10 -12.2 33 33 WSW 8 13 30.23 1024 10 16.0934 0 0
5:52 pm 17:52 Sunny 36 2.2 11 -11.7 35 35 W 7 11 30.24 1024 10 16.0934 0 0
6:52 pm 18:52 Clear 33 0.6 11 -11.7 40 40 WSW 5 7 30.24 1024 10 16.0934 0 0
7:52 pm 19:52 Clear 32 0 11 -11.7 41 41 SW 5 7 30.25 1024 10 16.0934 0 0
8:52 pm 20:52 Clear 30 -1.1 12 -11.1 47 47 SSW 5 7 30.24 1024 10 16.0934 0 0
9:52 pm 21:52 Clear 27 -2.8 13 -10.6 55 55 SSW 6 9 30.24 1024 10 16.0934 0 0
10:52 pm 22:52 Clear 27 -2.8 14 -10 58 58 S 5 7 30.23 1024 10 16.0934 0 0
11:52 pm 23:52 Clear 26 -3.3 15 -9.4 63 63 S 5 7 30.22 1023 10 16.0934 0 0

Powered by AerisWeather